GW0518 Weather Reports


Display with metric or nautical units.
time (UTC)temp
F
wind
direction
speed
MPH
gust
MPH
rain 1hr
in
rain 24hr
in
rain mn
in
humidity
%
barometer
mb
20260901224134 78 288 2.0 4.0 0.00 0.06 0.05 85 1015.6
20260901223853 78 288 2.0 4.0 0.00 0.06 0.05 84 1015.6
20260901221630 79 288 2.0 5.0 0.00 0.07 0.05 84 1015.5
20260901221129 79 288 2.0 5.0 0.00 0.07 0.05 83 1015.4
20260901220849 79 288 2.0 5.0 0.00 0.07 0.05 83 1015.5
20260901220129 79 288 2.0 5.0 0.00 0.07 0.05 83 1015.4
20260901215627 79 288 3.0 5.0 0.00 0.07 0.05 83 1015.5
20260901215122 79 288 3.0 5.0 0.00 0.07 0.05 83 1015.3
20260901214617 80 288 2.0 5.0 0.00 0.07 0.05 83 1015.1
20260901214116 80 288 2.0 7.0 0.00 0.08 0.05 83 1015.1
20260901213616 80 288 2.0 7.0 0.00 0.08 0.05 83 1015.1
20260901213118 80 288 3.0 7.0 0.00 0.08 0.05 83 1015.2
20260901212838 80 288 3.0 5.0 0.00 0.09 0.05 83 1015.3
20260901212116 80 288 3.0 8.0 0.00 0.10 0.05 84 1015.3
20260901211614 80 288 4.0 8.0 0.00 0.11 0.05 83 1015.3
20260901211112 80 288 3.0 9.0 0.00 0.12 0.05 83 1015.4
20260901210833 80 288 3.0 9.0 0.00 0.15 0.05 83 1015.3
20260901210110 80 288 3.0 8.0 0.00 0.17 0.05 84 1015.3
20260901205610 80 288 4.0 8.0 0.00 0.17 0.05 83 1015.3
20260901205108 80 288 3.0 7.0 0.00 0.17 0.05 83 1015.3
20260901204832 80 288 3.0 8.0 0.00 0.17 0.05 83 1015.3
20260901204107 80 288 3.0 8.0 0.00 0.17 0.05 83 1015.3
20260901203607 80 288 2.0 7.0 0.00 0.17 0.05 84 1015.3
20260901203107 80 288 2.0 7.0 0.00 0.17 0.05 85 1015.3
20260901202607 80 288 3.0 8.0 0.00 0.17 0.05 83 1015.3
20260901202107 81 288 3.0 8.0 0.00 0.17 0.05 82 1015.3
20260901201825 81 288 3.0 7.0 0.00 0.17 0.05 84 1015.2
20260901201105 80 288 3.0 7.0 0.00 0.17 0.05 85 1015.1
20260901200605 80 288 3.0 5.0 0.00 0.17 0.05 85 1015.1
20260901200104 80 288 2.0 5.0 0.00 0.17 0.05 85 1015.2
20260901195604 80 288 2.0 5.0 0.00 0.17 0.05 85 1015.2
20260901195329 80 288 2.0 5.0 0.00 0.18 0.05 85 1015.2
20260901194604 80 288 2.0 4.0 0.00 0.18 0.05 84 1015.2
20260901194103 80 288 3.0 7.0 0.00 0.19 0.05 84 1015.3
20260901193603 80 288 3.0 7.0 0.00 0.19 0.05 84 1015.2
20260901193105 80 288 3.0 7.0 0.00 0.19 0.05 85 1015.2
20260901192603 80 288 2.0 7.0 0.00 0.19 0.05 86 1015.2
20260901192323 79 288 2.0 7.0 0.00 0.19 0.05 86 1015.1
20260901191603 79 288 2.0 7.0 0.00 0.19 0.05 85 1015.1
20260901191103 79 288 3.0 9.0 0.00 0.19 0.05 85 1015.1
20260901190104 79 288 4.0 10.0 0.00 0.19 0.05 84 1015.2
20260901185603 79 288 4.0 10.0 0.00 0.19 0.05 84 1015.1
20260901185103 79 288 3.0 9.0 0.00 0.19 0.05 84 1015.1
20260901184605 79 288 2.0 7.0 0.00 0.19 0.05 84 1015.1
20260901184103 79 288 2.0 7.0 0.00 0.19 0.05 84 1014.9
20260901183604 79 288 3.0 7.0 0.00 0.19 0.05 83 1014.9
20260901183105 80 288 3.0 8.0 0.00 0.19 0.05 83 1014.9
20260901182602 80 288 3.0 8.0 0.00 0.19 0.05 82 1014.8
20260901182101 80 288 2.0 7.0 0.00 0.19 0.05 82 1014.8
20260901181602 80 288 2.0 9.0 0.00 0.19 0.05 84 1014.7
20260901181102 80 288 3.0 9.0 0.00 0.19 0.05 83 1014.7
20260901180601 79 288 4.0 10.0 0.00 0.19 0.05 84 1014.7
20260901175601 80 288 3.0 10.0 0.00 0.19 0.05 83 1014.5
20260901175101 79 288 3.0 8.0 0.00 0.19 0.05 82 1014.5
20260901174600 80 288 2.0 7.0 0.00 0.19 0.05 83 1014.6
20260901174101 80 288 2.0 5.0 0.00 0.19 0.05 83 1014.4
20260901173601 79 288 3.0 8.0 0.00 0.19 0.05 85 1014.4
20260901173103 79 288 4.0 9.0 0.00 0.19 0.05 84 1014.4
20260901172603 79 288 4.0 9.0 0.00 0.19 0.05 83 1014.5
20260901172100 79 288 2.0 7.0 0.00 0.19 0.05 82 1014.5
20260901171601 80 288 2.0 7.0 0.00 0.19 0.05 82 1014.5
20260901171325 80 288 3.0 9.0 0.00 0.19 0.05 84 1014.5
20260901170602 80 288 3.0 9.0 0.00 0.19 0.05 84 1014.5
20260901165600 80 288 3.0 8.0 0.00 0.20 0.05 82 1014.5
20260901165100 80 288 4.0 10.0 0.00 0.20 0.05 83 1014.5
20260901164608 80 288 4.0 10.0 0.00 0.21 0.05 82 1014.4
20260901164103 79 288 3.0 8.0 0.00 0.21 0.05 83 1014.4
20260901163601 79 288 4.0 10.0 0.00 0.21 0.05 82 1014.5
20260901163101 79 288 4.0 10.0 0.00 0.22 0.05 83 1014.5
20260901162601 79 288 3.0 10.0 0.00 0.22 0.05 82 1014.5
20260901162103 79 288 4.0 10.0 0.00 0.22 0.05 83 1014.4
20260901161600 79 288 4.0 11.0 0.00 0.23 0.05 82 1014.4
20260901161100 80 288 4.0 11.0 0.00 0.23 0.05 82 1014.4
20260901160558 79 288 4.0 11.0 0.00 0.23 0.05 82 1014.4
20260901160324 79 288 4.0 11.0 0.00 0.23 0.05 83 1014.4
20260901155558 79 288 4.0 10.0 0.00 0.23 0.05 83 1014.4
20260901155055 79 288 3.0 9.0 0.00 0.24 0.05 83 1014.4
20260901154553 79 288 3.0 10.0 0.00 0.24 0.05 86 1014.4
20260901154055 78 288 5.0 11.0 0.00 0.24 0.05 87 1014.4
20260901153553 78 288 5.0 11.0 0.00 0.25 0.05 87 1014.3
20260901153053 77 288 3.0 10.0 0.00 0.25 0.05 90 1014.3
20260901152551 77 288 2.0 9.0 0.00 0.26 0.05 93 1014.3
20260901152051 76 288 2.0 7.0 0.00 0.27 0.05 95 1014.4
20260901151550 75 288 2.0 4.0 0.00 0.29 0.05 98 1014.4
20260901151307 74 288 2.0 5.0 0.00 0.30 0.05 98 1014.6
20260901150547 73 288 1.0 5.0 0.00 0.30 0.05 98 1014.4
20260901150043 73 288 1.0 3.0 0.00 0.31 0.05 98 1014.6
20260901145542 73 288 1.0 3.0 0.00 0.31 0.05 98 1014.7
20260901145039 73 288 2.0 4.0 0.00 0.32 0.05 98 1014.6
20260901144539 72 288 1.0 4.0 0.00 0.33 0.05 98 1014.5
20260901144039 72 288 1.0 4.0 0.00 0.34 0.05 98 1014.6
20260901143758 72 288 2.0 4.0 0.00 0.35 0.05 99 1014.6
20260901143035 72 288 2.0 5.0 0.00 0.35 0.05 99 1014.6
20260901142535 72 288 2.0 7.0 0.00 0.36 0.05 99 1014.5
20260901142038 72 288 2.0 7.0 0.00 0.36 0.05 99 1014.5
20260901141536 72 288 2.0 7.0 0.00 0.36 0.05 99 1014.4
20260901141035 72 288 2.0 5.0 0.00 0.37 0.05 99 1014.5
20260901140537 72 288 2.0 4.0 0.00 0.37 0.05 99 1014.3
20260901140035 71 288 2.0 5.0 0.00 0.37 0.05 99 1014.2
20260901135754 71 288 2.0 7.0 0.00 0.37 0.05 99 1014.3
20260901135254 71 288 2.0 7.0 0.00 0.37 0.05 99 1014.3
20260901134533 71 288 2.0 7.0 0.00 0.37 0.05 99 1014.3
20260901134030 71 288 2.0 7.0 0.00 0.37 0.05 99 1014.3
20260901133529 70 288 2.0 7.0 0.00 0.37 0.05 99 1014.4
20260901133026 70 288 2.0 7.0 0.00 0.37 0.05 99 1014.4
20260901132523 70 288 2.0 7.0 0.00 0.37 0.05 99 1014.5
20260901132014 70 288 2.0 4.0 0.00 0.37 0.05 99 1014.5
20260901131730 70 288 2.0 8.0 0.00 0.37 0.05 99 1014.4